Location: Unnamed
(48.6007°N, 2.4808°E)
Time: 18:03:20
(UTC+01:00)

N. Korean satellite - Visible Passes

Search period start: 08 December 2022 00:00
Search period end: 18 December 2022 00:00
Orbit: 420 x 452 km, 97.3° (Epoch: 08 December)

Date Brightness Start Highest point End Pass type
(mag) Time Alt. Az. Time Alt. Az. Time Alt. Az.
08 Dec 6.3 06:30:59 10° N 06:34:22 63° WNW 06:37:41 10° SSW visible
09 Dec 7.8 05:52:03 10° NNE 05:55:16 39° E 05:58:25 10° S visible
09 Dec 8.0 07:25:20 10° NNW 07:27:27 16° WNW 07:29:34 10° WSW visible
09 Dec 9.0 17:57:28 10° SSW 18:00:21 25° W 18:03:15 10° NW visible
10 Dec 9.6 05:14:01 10° ENE 05:15:53 14° E 05:17:44 10° SE visible
10 Dec 6.7 06:45:23 10° N 06:48:36 41° WNW 06:51:46 10° SW visible
11 Dec 6.8 06:06:08 10° NNE 06:09:29 60° E 06:12:46 10° S visible
11 Dec 8.3 07:40:21 10° NW 07:41:29 11° WNW 07:42:36 10° W visible
11 Dec 9.6 18:12:12 10° SW 18:14:35 18° W 18:16:59 10° NW visible
12 Dec 9.1 05:27:32 10° NE 05:30:05 20° E 05:32:36 10° SE visible
12 Dec 7.2 06:59:39 10° N 07:02:36 28° WNW 07:05:30 10° SW visible
12 Dec 7.5 17:31:49 10° S 17:35:08 51° W 17:38:29 10° NNW visible
13 Dec 6.2 06:20:05 10° NNE 06:23:28 88° W 06:26:47 10° SSW visible
13 Dec 9.8 18:27:05 10° WSW 18:28:38 12° W 18:30:10 10° WNW visible
14 Dec 8.5 05:41:05 10° NE 05:44:39 26° ESE 05:46:57 10° SSE visible
14 Dec 8.2 07:13:50 10° NNW 07:18:04 14° WSW 07:18:53 10° WSW visible
14 Dec 8.3 17:45:52 10° SSW 17:49:01 34° W 17:52:10 10° NNW visible
15 Dec10.005:05:37ESE05:05:37ESE05:01:10NEvisible
15 Dec 7.8 06:33:54 10° N 06:39:00 24° SW 06:40:27 10° SSW visible
16 Dec 8.6 05:59:43 20° SSE 05:59:43 20° SSE 06:00:55 10° S visible
16 Dec8.907:33:05WSW07:33:05WSW07:27:33NNWvisible
16 Dec 9.1 17:59:53 10° SSW 18:02:42 24° W 18:05:32 10° NW visible
17 Dec9.805:20:17SE05:20:17SE05:14:00NEvisible
17 Dec 8.8 06:53:39 11° SW 06:53:39 11° SW 06:53:48 10° SW visible
